Regional Weather Roundup
Issued by NWS

Home | Current Version | Previous Version | Text Only | Print | Product List | Glossary Off
Versions: 1 2 3 4 5 6 7 8 9 10 11 12 13 14 15 16 17 18 19 20 21 22 23 24 25 26 27 28 29 30 31 32 33 34 35 36 37 38 39 40 41 42 43 44 45 46 47 48 49 50

000
ASUS43 KOAX 030910
RWRNE

WEATHER ROUNDUP FOR NEBRASKA
NATIONAL WEATHER SERVICE OMAHA NE
400 AM CDT MON AUG 03 2015

NOTES: SATELLITE DATA IS BEING USED TO AUGMENT CLOUD COVER ABOVE
       12000 FEET.
       "FAIR" INDICATES FEW OR NO CLOUDS BELOW 12,000 FEET WITH NO
       SIGNIFICANT WEATHER AND/OR OBSTRUCTIONS TO VISIBILITY.

  * THESE STATIONS DO NOT REPORT WEATHER SUCH AS RAIN...SNOW OR FOG.

NEZ001>004-019>022-054>056-031000-
NEBRASKA PANHANDLE

CITY           SKY/WX    TMP DP  RH WIND       PRES   REMARKS
SCOTTSBLUFF    MOCLDY    64  57  78 E6        29.99F
ALLIANCE       PTCLDY    59  55  87 E5        30.00S
CHADRON        CLEAR     60  56  86 N7        29.98F
KIMBALL        CLOUDY    60  52  73 SW5       30.04S
SIDNEY         CLOUDY    62  55  77 SW7       30.03S
$$

NEZ057>060-069>072-079>082-031000-
SOUTHWEST NEBRASKA

CITY           SKY/WX    TMP DP  RH WIND       PRES   REMARKS
NORTH PLATTE   PTCLDY    60  57  89 E5        29.99S
IMPERIAL       CLEAR     67  54  63 W3        29.98S
LEXINGTON      PTCLDY    61  57  89 N3        29.98S
MCCOOK         PTCLDY    63  58  83 CALM      29.95R
OGALLALA       PTCLDY    65  60  84 E9        29.99R
$$

NEZ005>010-023>029-035>040-094-031000-
NORTH CENTRAL NEBRASKA

CITY           SKY/WX    TMP DP  RH WIND       PRES   REMARKS
AINSWORTH      CLEAR     64  60  88 E3        30.01R
BROKEN BOW     CLEAR     62  58  86 CALM      30.00R
O`NEILL        CLEAR     63  60  88 E5        29.99R
ORD            CLEAR     66  61  84 SE3       29.98R
THEDFORD       CLEAR     63  61  92 SE3       30.02R
$$

NEZ041-046>049-061>064-073>077-083>087-031000-
SOUTH CENTRAL NEBRASKA

CITY           SKY/WX    TMP DP  RH WIND       PRES   REMARKS
GRAND ISLAND   PTCLDY    66  64  93 NE7       29.96R
AURORA         PTCLDY    69  68  96 NE7       29.94R
HASTINGS       CLEAR     67  65  93 NE6       29.95R
HEBRON         PTCLDY    70  65  84 CALM      29.90R
HOLDREGE       MOCLDY    60  57  89 NE7       29.95F
KEARNEY *      CLEAR     64  59  82 N6        29.96S
YORK           PTCLDY    68  68 100 NE8       29.93S
$$

NEZ011>018-030>034-042>045-031000-
NORTHEAST NEBRASKA

CITY           SKY/WX    TMP DP  RH WIND       PRES   REMARKS
NORFOLK        CLEAR     67  61  81 E6        29.96R
ALBION         CLEAR     66  60  81 NE7       29.96S
BLAIR          CLEAR     68  62  79 NE8       29.93R
COLUMBUS *     CLEAR     66  59  77 NE8       29.95R
FREMONT        CLEAR     70  64  79 NE5       29.94R
TEKAMAH        CLEAR     66  63  90 N5        29.94R
WAYNE          CLEAR     60  59  95 CALM      29.97R
$$

NEZ050>053-065>068-078-088>093-031000-
SOUTHEAST NEBRASKA

CITY           SKY/WX    TMP DP  RH WIND       PRES   REMARKS
LINCOLN        CLEAR     70  67  90 N6        29.91R
OMAHA EPPLEY   CLEAR     71  64  78 CALM      29.92R
BEATRICE       PTCLDY    73  72  96 NE5       29.89R
FALLS CITY     PTCLDY    72  65  78 SE6       29.88R
NEBRASKA CITY  MOCLDY    71  68  92 E7        29.90R
PLATTSMOUTH    PTCLDY    71  66  85 NE13      29.91R
$$

NEZ044-045-051>053-067-031000-
OMAHA AREA

CITY           SKY/WX    TMP DP  RH WIND       PRES   REMARKS
OMAHA EPPLEY   CLEAR     71  64  78 CALM      29.92R
BLAIR          CLEAR     68  62  79 NE8       29.93R
FREMONT        CLEAR     70  64  79 NE5       29.94R
MILLARD        CLEAR     74  64  72 CALM      29.91S
OFFUTT AFB     CLEAR     70  66  85 NE8       29.91R
PLATTSMOUTH    PTCLDY    71  66  85 NE13      29.91R
WAHOO          FAIR      68  65  90 NE7       29.93R
$$



USA.gov is the U.S. government's official web portal to all federal, state and local government web resources and services.